Volver al catálogo

SL-8 DEB

ActivoLEO
NORAD 39840·DEBRIS·🇷🇺 Russia

Lanzado Feb 12, 1991 desde Plesetsk Cosmodrome

Loading…

Próximos Pases (próximas 24 horas)

TLE

ObsoletoSource: Space-Track

Época: Aug 29, 2026, 14:36 UTC

1 39840U 91009DY  26241.60835742  .00002426  00000-0  28211-2 0  9993
2 39840  73.7856 323.8489 0103128  70.0924 356.4508 13.67062216604102

Sigue SL-8 DEB en tiempo real con AllMySat

Download on the App Store